Universal City, TX

7:12 AM CST on February 07, 2016 (GMT -0600)
Randolph Air Force Base

Weather History for KRND - February, 2013

Change the Weather History Date:

Friday, February 15, 2013

  Actual Average Record
Temperature  
Mean Temperature 53 °F -  
Max Temperature 67 °F 64 °F 82 °F (2000)
Min Temperature 39 °F 45 °F 30 °F (2007)
Degree Days  
Heating Degree Days 12    
Growing Degree Days 3 (Base 50)    
Moisture  
Dew Point 37 °F    
Average Humidity 61    
Maximum Humidity 97    
Minimum Humidity 29    
Precipitation  
Precipitation 0.00 in - - ()
Sea Level Pressure  
Sea Level Pressure 30.20 in    
Wind  
Wind Speed 7 mph (North)    
Max Wind Speed 17 mph    
Max Gust Speed 26 mph    
Visibility 10 miles    
Events      
Averages and records for this station are not official NWS values.
T = Trace of Precipitation, MM = Missing Value Source: NWS Daily Summary

Daily Weather History Graph

Daily Weather History Graph

Search for Another Location

Airport or City:

Trip Planner

Search our weather history database for the weather conditions in past years. The results will help you decide how hot, cold, wet, or windy it might be!

Date:

Astronomy

Feb. 15, 2013 Rise Set
Actual Time 7:12 AM CST 6:22 PM CST
Civil Twilight 6:47 AM CST 6:47 PM CST
Nautical Twilight 6:19 AM CST 7:14 PM CST
Astronomical Twilight 5:52 AM CST 7:42 PM CST
Moon 10:18 AM CST (2/15) 11:52 PM CST (2/15)
Length of Visible Light 11h 59m
Length of Day
11h 10m
Waxing Crescent, 30% of the Moon is Illuminated
Feb 15
Waxing Crescent
Feb 17
First Quarter
Feb 25
Full
Mar 4
Last Quarter
Mar 11
New

Hourly Weather History & Observations

Time (CST) Temp. Windchill Dew Point Humidity Pressure Visibility Wind Dir Wind Speed Gust Speed Precip Events Conditions
12:55 AM 46.2 °F - 38.5 °F 74% 30.09 in 10.0 mi Calm Calm - N/A   Clear
1:55 AM 43.7 °F - 38.3 °F 81% 30.10 in 10.0 mi Calm Calm - N/A   Clear
2:55 AM 40.3 °F 36.3 °F 37.2 °F 89% 30.09 in 10.0 mi NNW 5.8 mph - N/A   Clear
3:55 AM 41.2 °F 38.2 °F 37.9 °F 88% 30.10 in 10.0 mi NNW 4.6 mph - N/A   Clear
4:55 AM 39.0 °F 34.0 °F 37.4 °F 94% 30.10 in 10.0 mi NNW 6.9 mph - N/A   Clear
5:55 AM 39.4 °F 35.2 °F 38.1 °F 95% 30.12 in 10.0 mi NNW 5.8 mph - N/A   Clear
6:55 AM 39.0 °F 34.0 °F 38.3 °F 97% 30.15 in 10.0 mi NW 6.9 mph - N/A   Clear
7:55 AM 42.3 °F 35.5 °F 41.2 °F 96% 30.19 in 10.0 mi NW 12.7 mph - N/A   Clear
8:55 AM 48.9 °F - 44.2 °F 84% 30.22 in 10.0 mi NNW 8.1 mph - N/A   Clear
9:55 AM 58.6 °F - 45.5 °F 62% 30.23 in 10.0 mi North 9.2 mph - N/A   Clear
10:55 AM 62.4 °F - 43.3 °F 50% 30.24 in 10.0 mi NNE 8.1 mph - N/A   Clear
11:55 AM 64.2 °F - 38.7 °F 39% 30.22 in 10.0 mi Calm Calm - N/A   Clear
12:55 PM 67.1 °F - 36.1 °F 32% 30.19 in 10.0 mi Calm Calm - N/A   Clear
1:55 PM 67.3 °F - 33.4 °F 29% 30.16 in 10.0 mi ENE 9.2 mph - N/A   Scattered Clouds
2:55 PM 66.4 °F - 35.6 °F 32% 30.16 in 10.0 mi NE 17.3 mph - N/A   Mostly Cloudy
3:55 PM 66.4 °F - 36.1 °F 33% 30.16 in 10.0 mi NE 11.5 mph - N/A   Mostly Cloudy
4:55 PM 61.0 °F - 36.5 °F 40% 30.18 in 10.0 mi NE 15.0 mph - N/A   Scattered Clouds
5:55 PM 59.2 °F - 37.6 °F 45% 30.21 in 10.0 mi NE 12.7 mph - N/A   Clear
6:55 PM 54.3 °F - 36.9 °F 52% 30.25 in 10.0 mi North 13.8 mph 23.0 mph N/A   Clear
7:55 PM 52.9 °F - 36.5 °F 54% 30.29 in 10.0 mi North 12.7 mph - N/A   Mostly Cloudy
8:55 PM 51.6 °F - 34.3 °F 52% 30.32 in 10.0 mi North 16.1 mph 26.5 mph N/A   Overcast
9:55 PM 49.3 °F - 32.7 °F 53% 30.35 in 10.0 mi North 17.3 mph - N/A   Overcast
10:55 PM 48.6 °F - 29.7 °F 48% 30.37 in 10.0 mi North 17.3 mph - N/A   Overcast
11:55 PM 47.8 °F - 22.3 °F 37% 30.38 in 10.0 mi North 10.4 mph - N/A   Overcast